Ironwood, MI

7:11 AM CST on February 14, 2016 (GMT -0600)
Gogebic-Iron County

Weather History for KIWD - November, 2012

Change the Weather History Date:

Monday, November 12, 2012

  Actual Average Record
Temperature  
Mean Temperature 24 °F -  
Max Temperature 26 °F 38 °F 59 °F (2011)
Min Temperature 21 °F 25 °F 10 °F (1997)
Degree Days  
Heating Degree Days 42    
Moisture  
Dew Point 13 °F    
Average Humidity 65    
Maximum Humidity 74    
Minimum Humidity 54    
Precipitation  
Precipitation 0.00 in - - ()
Sea Level Pressure  
Sea Level Pressure 29.88 in    
Wind  
Wind Speed 15 mph (WSW)    
Max Wind Speed 21 mph    
Max Gust Speed 28 mph    
Visibility 10 miles    
Events      
Averages and records for this station are not official NWS values.
T = Trace of Precipitation, MM = Missing Value Source: NWS Daily Summary

Daily Weather History Graph

Daily Weather History Graph

Search for Another Location

Airport or City:

Trip Planner

Search our weather history database for the weather conditions in past years. The results will help you decide how hot, cold, wet, or windy it might be!

Date:

Astronomy

Nov. 12, 2012 Rise Set
Actual Time 6:58 AM CST 4:30 PM CST
Civil Twilight 6:26 AM CST 5:02 PM CST
Nautical Twilight 5:49 AM CST 5:39 PM CST
Astronomical Twilight 5:14 AM CST 6:14 PM CST
Moon 5:21 AM CST (11/12) 3:36 PM CST (11/12)
Length of Visible Light 10h 36m
Length of Day
9h 31m
Waning Crescent, 2% of the Moon is Illuminated
Nov 12
Waning Crescent
Nov 13
New
Nov 20
First Quarter
Nov 28
Full
Dec 6
Last Quarter

Hourly Weather History & Observations

Time (CST) Temp. Windchill Dew Point Humidity Pressure Visibility Wind Dir Wind Speed Gust Speed Precip Events Conditions
12:15 AM 26.6 °F 15.2 °F 17.6 °F 69% 29.75 in 10.0 mi West 13.8 mph - N/A   Overcast
12:55 AM 26.6 °F 14.7 °F 17.6 °F 69% 29.75 in 10.0 mi West 15.0 mph - N/A   Overcast
1:15 AM 26.6 °F 14.7 °F 15.8 °F 64% 29.75 in 10.0 mi SW 15.0 mph 19.6 mph N/A   Overcast
1:35 AM 24.8 °F 11.1 °F 15.8 °F 69% 29.76 in 10.0 mi WSW 18.4 mph - N/A   Overcast
1:55 AM 24.8 °F 11.9 °F 15.8 °F 69% 29.76 in 10.0 mi WSW 16.1 mph 20.7 mph N/A   Overcast
2:15 AM 24.8 °F 14.0 °F 14.0 °F 64% 29.77 in 10.0 mi WSW 11.5 mph - N/A   Overcast
2:35 AM 23.0 °F 9.2 °F 12.2 °F 63% 29.77 in 10.0 mi West 17.3 mph 23.0 mph N/A   Overcast
2:55 AM 23.0 °F 10.1 °F 12.2 °F 63% 29.77 in 10.0 mi West 15.0 mph - N/A   Overcast
3:15 AM 23.0 °F 10.6 °F 12.2 °F 63% 29.77 in 10.0 mi WSW 13.8 mph - N/A   Overcast
3:35 AM 23.0 °F 11.1 °F 12.2 °F 63% 29.78 in 10.0 mi WSW 12.7 mph - N/A   Overcast
3:55 AM 23.0 °F 12.4 °F 12.2 °F 63% 29.78 in 10.0 mi WSW 10.4 mph - N/A   Overcast
4:15 AM 21.2 °F 7.3 °F 12.2 °F 68% 29.78 in 9.0 mi WSW 16.1 mph - N/A   Overcast
4:35 AM 21.2 °F 10.1 °F 14.0 °F 74% 29.78 in 9.0 mi WSW 10.4 mph - N/A   Overcast
4:55 AM 21.2 °F 9.5 °F 14.0 °F 74% 29.79 in 9.0 mi SW 11.5 mph - N/A   Overcast
5:15 AM 21.2 °F 8.3 °F 12.2 °F 68% 29.79 in 10.0 mi SW 13.8 mph 21.9 mph N/A   Overcast
5:35 AM 21.2 °F 8.3 °F 10.4 °F 63% 29.79 in 10.0 mi WSW 13.8 mph - N/A   Overcast
5:55 AM 21.2 °F 9.5 °F 10.4 °F 63% 29.79 in 10.0 mi SW 11.5 mph - N/A   Overcast
6:15 AM 21.2 °F 7.3 °F 10.4 °F 63% 29.79 in 10.0 mi SW 16.1 mph 25.3 mph N/A   Overcast
6:35 AM 21.2 °F 7.3 °F 10.4 °F 63% 29.79 in 10.0 mi WSW 16.1 mph 20.7 mph N/A   Overcast
6:55 AM 21.2 °F 10.1 °F 10.4 °F 63% 29.80 in 10.0 mi WSW 10.4 mph - N/A   Overcast
7:15 AM 21.2 °F 8.3 °F 10.4 °F 63% 29.80 in 10.0 mi SW 13.8 mph - N/A   Overcast
7:35 AM 21.2 °F 8.3 °F 10.4 °F 63% 29.80 in 10.0 mi SW 13.8 mph - N/A   Overcast
7:55 AM 21.2 °F 7.3 °F 10.4 °F 63% 29.81 in 10.0 mi WSW 16.1 mph 23.0 mph N/A   Overcast
8:15 AM 21.2 °F 7.3 °F 8.6 °F 58% 29.81 in 10.0 mi WSW 16.1 mph - N/A   Overcast
8:35 AM 21.2 °F 8.9 °F 8.6 °F 58% 29.82 in 10.0 mi WSW 12.7 mph - N/A   Overcast
8:55 AM 21.2 °F 7.3 °F 8.6 °F 58% 29.82 in 10.0 mi WSW 16.1 mph 19.6 mph N/A   Overcast
9:15 AM 21.2 °F 7.3 °F 8.6 °F 58% 29.81 in 10.0 mi SW 16.1 mph - N/A   Overcast
9:55 AM 21.2 °F 7.3 °F 8.6 °F 58% 29.82 in 10.0 mi SW 16.1 mph 20.7 mph N/A   Overcast
10:15 AM 21.2 °F 7.8 °F 8.6 °F 58% 29.82 in 5.0 mi WSW 15.0 mph 20.7 mph N/A   Overcast
10:35 AM 21.2 °F 6.4 °F 8.6 °F 58% 29.82 in 10.0 mi WSW 18.4 mph 21.9 mph N/A   Overcast
10:55 AM 21.2 °F 6.4 °F 8.6 °F 58% 29.82 in 10.0 mi WSW 18.4 mph 25.3 mph N/A   Overcast
11:15 AM 21.2 °F 6.0 °F 8.6 °F 58% 29.82 in 10.0 mi WSW 19.6 mph 24.2 mph N/A   Overcast
11:35 AM 21.2 °F 7.3 °F 10.4 °F 63% 29.82 in 10.0 mi WSW 16.1 mph 26.5 mph N/A   Overcast
11:55 AM 21.2 °F 6.8 °F 10.4 °F 63% 29.82 in 10.0 mi West 17.3 mph 21.9 mph N/A   Overcast
12:15 PM 21.2 °F 7.8 °F 10.4 °F 63% 29.82 in 10.0 mi WSW 15.0 mph 21.9 mph N/A   Overcast
12:35 PM 21.2 °F 6.4 °F 10.4 °F 63% 29.83 in 9.0 mi West 18.4 mph 23.0 mph N/A   Overcast
12:55 PM 21.2 °F 7.3 °F 10.4 °F 63% 29.83 in 10.0 mi WSW 16.1 mph 23.0 mph N/A   Mostly Cloudy
1:15 PM 23.0 °F 9.6 °F 10.4 °F 59% 29.84 in 10.0 mi WSW 16.1 mph 20.7 mph N/A   Mostly Cloudy
1:35 PM 23.0 °F 9.6 °F 12.2 °F 63% 29.84 in 10.0 mi WSW 16.1 mph - N/A   Overcast
1:55 PM 23.0 °F 9.6 °F 10.4 °F 59% 29.84 in 10.0 mi WSW 16.1 mph 25.3 mph N/A   Overcast
2:15 PM 24.8 °F 10.3 °F 10.4 °F 54% 29.85 in 10.0 mi WSW 20.7 mph 27.6 mph N/A   Overcast
2:35 PM 24.8 °F 11.9 °F 10.4 °F 54% 29.86 in 10.0 mi WSW 16.1 mph - N/A   Mostly Cloudy
3:15 PM 24.8 °F 11.5 °F 12.2 °F 59% 29.87 in 10.0 mi WSW 17.3 mph 24.2 mph N/A   Mostly Cloudy
3:35 PM 24.8 °F 11.9 °F 12.2 °F 59% 29.88 in 10.0 mi West 16.1 mph 26.5 mph N/A   Overcast
3:55 PM 23.0 °F 8.3 °F 10.4 °F 59% 29.89 in 10.0 mi WSW 19.6 mph 26.5 mph N/A   Overcast
4:35 PM 23.0 °F 10.6 °F 14.0 °F 68% 29.91 in 8.0 mi West 13.8 mph - N/A   Overcast
4:55 PM 23.0 °F 9.2 °F 14.0 °F 68% 29.92 in 7.0 mi WSW 17.3 mph 25.3 mph N/A   Overcast
5:15 PM 23.0 °F 10.1 °F 14.0 °F 68% 29.94 in 8.0 mi WSW 15.0 mph 20.7 mph N/A   Overcast
5:35 PM 23.0 °F 10.1 °F 14.0 °F 68% 29.94 in 10.0 mi West 15.0 mph - N/A   Overcast
5:55 PM 23.0 °F 10.1 °F 14.0 °F 68% 29.96 in 10.0 mi WSW 15.0 mph 20.7 mph N/A   Overcast
6:15 PM 23.0 °F 8.3 °F 14.0 °F 68% 29.96 in 10.0 mi WSW 19.6 mph - N/A   Overcast
6:35 PM 23.0 °F 8.7 °F 12.2 °F 63% 29.97 in 10.0 mi WSW 18.4 mph - N/A   Overcast
6:55 PM 23.0 °F 10.1 °F 14.0 °F 68% 29.98 in 10.0 mi West 15.0 mph - N/A   Overcast
7:15 PM 23.0 °F 9.6 °F 15.8 °F 74% 29.98 in 9.0 mi WSW 16.1 mph - N/A   Mostly Cloudy
7:35 PM 23.0 °F 9.2 °F 15.8 °F 74% 29.99 in 8.0 mi West 17.3 mph 20.7 mph N/A   Overcast
7:55 PM 23.0 °F 9.6 °F 15.8 °F 74% 30.00 in 8.0 mi WSW 16.1 mph 23.0 mph N/A   Overcast
8:15 PM 23.0 °F 8.3 °F 15.8 °F 74% 30.01 in 8.0 mi West 19.6 mph - N/A   Overcast
8:35 PM 23.0 °F 9.2 °F 15.8 °F 74% 30.02 in 8.0 mi West 17.3 mph 21.9 mph N/A   Overcast
8:55 PM 23.0 °F 9.6 °F 15.8 °F 74% 30.03 in 8.0 mi WSW 16.1 mph - N/A   Overcast
9:15 PM 23.0 °F 10.1 °F 15.8 °F 74% 30.04 in 10.0 mi West 15.0 mph - N/A   Overcast
9:35 PM 23.0 °F 9.6 °F 15.8 °F 74% 30.05 in 10.0 mi West 16.1 mph 21.9 mph N/A   Overcast
9:55 PM 23.0 °F 9.2 °F 15.8 °F 74% 30.06 in 10.0 mi WSW 17.3 mph 24.2 mph N/A   Overcast
10:15 PM 24.8 °F 10.3 °F 15.8 °F 69% 30.07 in 10.0 mi West 20.7 mph - N/A   Overcast
10:35 PM 24.8 °F 11.9 °F 15.8 °F 69% 30.08 in 10.0 mi WSW 16.1 mph - N/A   Overcast
10:55 PM 24.8 °F 11.5 °F 15.8 °F 69% 30.09 in 10.0 mi WSW 17.3 mph 25.3 mph N/A   Overcast
11:15 PM 23.0 °F 8.7 °F 14.0 °F 68% 30.10 in 10.0 mi WSW 18.4 mph 23.0 mph N/A   Overcast
11:35 PM 24.8 °F 11.5 °F 15.8 °F 69% 30.11 in 10.0 mi West 17.3 mph 21.9 mph N/A   Overcast
11:55 PM 23.0 °F 8.7 °F 14.0 °F 68% 30.11 in 10.0 mi WSW 18.4 mph - N/A   Overcast